World > North America > United States > New York

New Kingston, New York Regional Weather

Lat: 42.22N, Lon: 74.68W
Wx Zone: NYZ057
Feedback

New Kingston, NY Regional Weather

Expires:201910240400;;178396
ASUS41 KALY 240310
RWRALY

NEW YORK STATE HOURLY WEATHER ROUNDUP
NATIONAL WEATHER SERVICE ALBANY NY
1100 PM EDT WED OCT 23 2019

NOTE: "FAIR" INDICATES FEW OR NO CLOUDS BELOW 12,000 FEET WITH NO
SIGNIFICANT WEATHER AND/OR NO OBSTRUCTIONS TO VISIBILITY.


NYZ032-033-038>043-046>054-057>066-NYZ062>081-082-084-240400-
EAST

  
CITY           SKY/WX    TMP DP  RH WIND       PRES   REMARKS
ALBANY         FAIR      42  37  82 CALM      30.13R                  
GLENS FALLS    FAIR      42  37  82 SW7       30.09R                  
POUGHKEEPSIE   FAIR      42  37  82 E3        30.13R                  
NEWBURGH       CLEAR     50  36  57 CALM      30.14R                  
MONTGOMERY     FAIR      41  36  82 CALM      30.14R                  
WHITE PLAINS   FAIR      49  36  61 NW5       30.14R                  
ISLIP          FAIR      48  38  68 CALM      30.15R                  
NEW YORK CITY  FAIR      59  32  36 W12       30.15R                  
CENTRAL PARK   FAIR      57  33  40 VRB6      30.18R                  
$$


SKY/WX - Weather  TMP - Temperature  DP - Dew Point  RH - Relative Humidity
WIND - Wind Direction/Speed PRES - Barometric Pressure VSB - Visibility
WCI - Wind Chill Index E13G22 Wind - East Wind 13 mph/Gusts of 22 mph